Alturas, CA

11:00 AM PST on March 01, 2017 (GMT -0800)
Alturas Municipal

Weather History for KAAT - August, 2014

Change the Weather History Date:

Wednesday, August 27, 2014

  Actual Average Record
Temperature  
Mean Temperature 67 °F 62 °F  
Max Temperature 92 °F 84 °F 100 °F (1915)
Min Temperature 42 °F 41 °F 30 °F (1995)
Degree Days  
Heating Degree Days 0 4  
Month to date heating degree days 11 53  
Since 1 June heating degree days 106 274  
Since 1 July heating degree days 17 94  
Cooling Degree Days 2 1  
Month to date cooling degree days 86 52  
Year to date cooling degree days 359 147  
Since 1 June cooling degree days 359 147  
Growing Degree Days 18 (Base 50)    
Moisture  
Dew Point 34 °F    
Average Humidity 36    
Maximum Humidity 58    
Minimum Humidity 14    
Precipitation  
Precipitation 0.00 in 0.01 in 0.53 in (1942)
Month to date precipitation 0.46 0.30  
Year to date precipitation 6.28 9.08  
Sea Level Pressure  
Sea Level Pressure 30.06 in    
Wind  
Wind Speed 3 mph (SW)    
Max Wind Speed 14 mph    
Max Gust Speed 17 mph    
Visibility 10 miles    
Events      
T = Trace of Precipitation, MM = Missing Value Source: NWS Daily Summary

Daily Weather History Graph

Daily Weather History Graph

Search for Another Location

Airport or City:

Trip Planner

Search our weather history database for the weather conditions in past years. The results will help you decide how hot, cold, wet, or windy it might be!

Date:

Astronomy

Aug. 27, 2014 Rise Set
Actual Time 6:23 AM PDT 7:43 PM PDT
Civil Twilight 5:54 AM PDT 8:11 PM PDT
Nautical Twilight 5:20 AM PDT 8:46 PM PDT
Astronomical Twilight 4:43 AM PDT 9:22 PM PDT
Moon 8:26 AM PDT (8/27) 8:35 PM PDT (8/27)
Length of Visible Light 14h 17m
Length of Day
13h 19m
Waxing Crescent, 4% of the Moon is Illuminated
Aug 27
Waxing Crescent
Sep 2
First Quarter
Sep 8
Full
Sep 15
Last Quarter
Sep 23
New

Hourly Weather History & Observations

Time (PDT) Temp. Dew Point Humidity Pressure Visibility Wind Dir Wind Speed Gust Speed Precip Events Conditions
12:55 AM 52.0 °F 30.0 °F 43% 30.04 in 10.0 mi Calm Calm - N/A   Clear
1:55 AM 53.1 °F 34.0 °F 48% 30.04 in 10.0 mi ESE 3.5 mph - N/A   Clear
2:55 AM 46.9 °F 28.9 °F 50% 30.07 in 10.0 mi SW 3.5 mph - N/A   Clear
3:55 AM 46.9 °F 30.0 °F 52% 30.07 in 10.0 mi Calm Calm - N/A   Clear
4:55 AM 48.0 °F 30.9 °F 52% 30.08 in 10.0 mi Calm Calm - N/A   Clear
5:55 AM 44.1 °F 30.0 °F 58% 30.11 in 10.0 mi Calm Calm - N/A   Clear
6:55 AM 45.0 °F 28.9 °F 53% 30.12 in 10.0 mi Calm Calm - N/A   Clear
8:55 AM 63.0 °F 34.0 °F 34% 30.12 in 10.0 mi Calm Calm - N/A   Clear
9:55 AM 72.0 °F 36.0 °F 27% 30.12 in 10.0 mi Calm Calm - N/A   Clear
10:55 AM 78.1 °F 37.0 °F 23% 30.10 in 10.0 mi Calm Calm - N/A   Clear
11:55 AM 82.0 °F 37.0 °F 20% 30.09 in 10.0 mi Variable 3.5 mph - N/A   Clear
12:55 PM 86.0 °F 35.1 °F 16% 30.07 in 10.0 mi WSW 9.2 mph - N/A   Clear
1:55 PM 87.1 °F 35.1 °F 16% 30.04 in 10.0 mi Calm Calm - N/A   Clear
2:55 PM 88.0 °F 35.1 °F 15% 30.03 in 10.0 mi South 6.9 mph - N/A   Clear
3:55 PM 91.0 °F 35.1 °F 14% 30.01 in 10.0 mi NE 6.9 mph - N/A   Clear
4:55 PM 90.0 °F 34.0 °F 14% 30.00 in 10.0 mi Calm Calm - N/A   Clear
5:55 PM 90.0 °F 33.1 °F 13% 30.00 in 10.0 mi Calm Calm - N/A   Clear
6:55 PM 87.1 °F 34.0 °F 15% 30.00 in 10.0 mi West 12.7 mph - N/A   Clear
7:55 PM 77.0 °F 34.0 °F 21% 30.01 in 10.0 mi West 4.6 mph - N/A   Clear
8:55 PM 78.1 °F 39.9 °F 25% 30.02 in 10.0 mi West 9.2 mph - N/A   Clear
10:55 PM 73.0 °F 39.9 °F 30% 30.02 in 10.0 mi WSW 5.8 mph - N/A   Clear
11:55 PM 66.0 °F 42.1 °F 42% 30.05 in 10.0 mi ESE 3.5 mph - N/A   Clear